Location: Caltech
(34.1382°N, 118.1253°W)
Time: 16:00:49
(UTC-07:00)

Aureole 2 Rocket - Visible Passes

Search period start: 27 August 2014 00:00
Search period end: 06 September 2014 00:00
Orbit: 349 x 763 km, 73.9° (Epoch: 25 August)

Date Brightness Start Highest point End Pass type
(mag) Time Alt. Az. Time Alt. Az. Time Alt. Az.
02 Sep 6.8 05:54:27 10° ESE 05:56:09 12° E 05:57:50 10° ENE visible
03 Sep 6.5 05:50:25 10° SE 05:53:13 15° E 05:55:57 10° ENE visible
04 Sep 6.3 05:46:46 10° SE 05:50:15 18° E 05:53:39 10° NE visible
05 Sep 6.0 05:43:18 10° SSE 05:47:17 23° E 05:51:08 10° NE visible
